THOR ABLESTAR DEB, 745

Orbit data source: Space-Track

THOR ABLESTAR DEB, 745 is space debris in LEO originally from a launch on Sat, 28 Sep 1963 UTC launched from the Air Force Western Test Range (AFWTR). Debris objects in space refer to the collection of defunct objects orbiting the Earth. Examples of debris include non-operational satellites, rocket bodies, and fragments generated from explosions, collisions, or faulty payload assembly.

Loading next visibility...
Identifier
745, 1963-038E
Orbit
LEO
Country
Flag of USUS
Related business
Manufacturer
Unknown
Mission
Spacecraft
Bus & Motor
Unknown
Mass
Unknown
Launch date (UTC)
1963-09-28 (62 years ago)
Launch vehicle
Unknown
Launch site
Air Force Western Test Range (AFWTR)
Object type
Payload
Rocket body
Debris
Shape & HBR
Unknown
Radar Cross Section
Small (<0.1 m²)

Expand to show TLE details & history
Last TLE update: 1 day ago

TLE from 1 day ago
0 THOR ABLESTAR DEB
1 00745U 63038E   25259.72923434  .00000134  00000-0  17895-3 0  9994
2 00745  89.9981 336.4247 0017697  18.0639 109.2097 13.55455825 54389
Epoch: 2025-09-16T17:30Z
TLE epoch observation values (Epoch: 2025-09-16T17:30:05.846Z)
Latitude
52.62955°
Longitude
-102.01749°
Altitude
1,065.238 km
Speed
7.322 km/s
True Right ascension
10h 25m 41s
True Declination
52° 28' 13"
Sunlit
Object was in daylight at epoch
Visualization orbit readout
Latitude
Unknown
Longitude
Unknown
Altitude
Unknown
Speed
Unknown
Apparent Right ascension
Unknown
Apparent Declination
Unknown
Sunlit
N/A
Visualization observer readout
Local Sidereal Time
16:51:56
Azimuth
Unknown
Elevation
Unknown
Doppler factor
Unknown
Orbital elements
Apogee altitude
1,062.439 km
Perigee altitude
1,036.15 km
Semi-major axis
7,427.432 km
Eccentricity
0.00177
Inclination
89.9981°
RAAN
336.4247°
Arg. of periapsis
18.0639°
True anomaly
109.40106°
Mean anomaly
109.2097°
Eccentric anomaly
109.30539°
Mean motion
3.39067 °/min
Orbital period
106.17 mins
BSTAR
0.00017895
Loading maneuver chart data...
Computing Atmospheric mass density...

Documentation

Showing up to 5 results
|